Regional Weather Roundup
Issued by NWS

Home | Current Version | Previous Version | Graphics & Text | Print | Product List | Glossary On
Versions: 1 2 3 4 5 6 7 8 9 10 11 12 13 14 15 16 17 18 19 20 21 22 23 24 25 26 27 28 29 30 31 32 33 34 35 36 37 38 39 40 41 42 43 44 45 46 47 48 49 50
000
ASUS43 KOAX 191902
RWRNE

WEATHER ROUNDUP FOR NEBRASKA
NATIONAL WEATHER SERVICE OMAHA NE
100 PM CST MON FEB 19 2018

NOTES: SATELLITE DATA IS BEING USED TO AUGMENT CLOUD COVER ABOVE
       12000 FEET.
       "FAIR" INDICATES FEW OR NO CLOUDS BELOW 12,000 FEET WITH NO
       SIGNIFICANT WEATHER AND/OR OBSTRUCTIONS TO VISIBILITY.


NEZ001>004-019>022-054>056-192000-
NEBRASKA PANHANDLE

CITY           SKY/WX    TMP DP  RH WIND       PRES   REMARKS
SCOTTSBLUFF    LGT SNOW   8   0  69 NE12      29.79F WCI  -7
ALLIANCE       CLOUDY     4   0  83 NE20      29.79F FOG     WCI -17
CHADRON        LGT SNOW   4  -2  76 NE15      29.91F WCI -14
GORDON         FLURRIES   5  -2  72 N14G20    29.85F WCI -13
KIMBALL        FLURRIES   8   3  80 NE9       29.69F WCI  -6
SIDNEY         LGT SNOW   8   4  83 NE12      29.74F FOG     WCI  -7
$$

NEZ057>060-069>072-079>082-192000-
SOUTHWEST NEBRASKA

CITY           SKY/WX    TMP DP  RH WIND       PRES   REMARKS
NORTH PLATTE   LGT SNOW  13   6  74 N16       29.84F WCI  -3
IMPERIAL       FLURRIES  13   9  84 N12       29.81F WCI  -1
LEXINGTON      LGT SNOW  16  11  80 N13G21    29.84F WCI   3
MCCOOK         LGT SNOW  17  12  80 N13       29.83F WCI   4
OGALLALA       FLURRIES  13   9  81 N15       29.82F WCI  -2
$$

NEZ005>010-023>029-035>040-094-192000-
NORTH CENTRAL NEBRASKA

CITY           SKY/WX    TMP DP  RH WIND       PRES   REMARKS
VALENTINE      LGT SNOW   8   0  69 N18       29.92F WCI -11
AINSWORTH      LGT SNOW   9   5  84 N24       29.90F WCI -12
BROKEN BOW     FLURRIES  13   7  77 N17G28    29.83F WCI  -4
O`NEILL        LGT SNOW  12   8  85 N21G26    29.90S WCI  -7
ORD            LGT SNOW  14  10  84 N22G30    29.85F FOG     WCI  -4
THEDFORD       CLOUDY    10   6  84 N14G22    29.86F WCI  -6
$$

NEZ041-046>049-061>064-073>077-083>087-192000-
SOUTH CENTRAL NEBRASKA

CITY           SKY/WX    TMP DP  RH WIND       PRES   REMARKS
GRAND ISLAND   LGT SNOW  17  13  84 N17       29.85F FOG     WCI   1
AURORA         FLURRIES  18  14  85 N16       29.84F WCI   3
HASTINGS       LGT SNOW  17  13  84 N16       29.84F FOG     WCI   2
HEBRON         CLOUDY    22  18  85 N13       29.84F WCI  10
HOLDREGE       LGT SNOW  17  14  89 N13       29.84S WCI   3
KEARNEY        FLURRIES  16  12  84 N17       29.85F WCI   0
YORK           FLURRIES  19  19 100 N13G18    29.84F WCI   7
$$

NEZ011>018-030>034-042>045-192000-
NORTHEAST NEBRASKA

CITY           SKY/WX    TMP DP  RH WIND       PRES   REMARKS
NORFOLK        LGT SNOW  17  15  92 N13G22    29.85R FOG     WCI   4
ALBION         LGT SNOW  16  11  81 N17       29.85F WCI   0
BLAIR          CLOUDY    23  22  94 N9        29.81R FOG     WCI  13
COLUMBUS       MIX PCPN  20  17  88 N12       29.87R FOG     WCI   8
FREMONT        CLOUDY    22  20  93 NW12G17   29.84F FOG     WCI  10
TEKAMAH        CLOUDY    22  19  89 NW16      29.83F WCI   8
WAYNE          CLOUDY    18  17  96 N12       29.84S WCI   6
$$

NEZ050>053-065>068-078-088>093-192000-
SOUTHEAST NEBRASKA

CITY           SKY/WX    TMP DP  RH WIND       PRES   REMARKS
LINCOLN        FLURRIES  22  20  92 N16       29.85S WCI   8
OMAHA EPPLEY   CLOUDY    24  22  91 NW18      29.81F WCI  10
BEATRICE       CLOUDY    25  23  92 N13G18    29.83F WCI  13
FALLS CITY     CLOUDY    27  25  92 NW15G23   29.80S WCI  15
NEBRASKA CITY  CLOUDY    26  26 100 N14       29.79F WCI  14
PLATTSMOUTH    CLOUDY    24  24  99 NW9       29.80S WCI  14
$$

NEZ044-045-051>053-067-192000-
OMAHA AREA

CITY           SKY/WX    TMP DP  RH WIND       PRES   REMARKS
OMAHA EPPLEY   CLOUDY    24  22  91 NW18      29.81F WCI  10
BLAIR          CLOUDY    23  22  94 N9        29.81R FOG     WCI  13
FREMONT        CLOUDY    22  20  93 NW12G17   29.84F FOG     WCI  10
MILLARD        CLOUDY    25  22  89 NW9G16    29.83S WCI  15
OFFUTT AFB     CLOUDY    24  22  92 NW13      29.80F WCI  12
PLATTSMOUTH    CLOUDY    24  24  99 NW9       29.80S WCI  14
WAHOO          CLOUDY    23  20  90 N15       29.83S WCI  10
$$




USA.gov is the U.S. government's official web portal to all federal, state and local government web resources and services.